星链-2256 (STARLINK-2256 )

导读

STARLINK-2256是美国SpaceX公司星链星座的一员,于2021年5月15日发射入轨,属于星链第一代V1.5批次卫星。星链计划旨在构建全球低轨宽带互联网星座,该卫星运行在近地轨道,配备相控阵天线与氪离子推进系统,可提供高速宽带接入服务,服务范围覆盖全球多数区域,助力实现偏远地区网络覆盖、应急通信等场景应用,是星链大规模组网中的重要组成单元。

基本信息
目录编号:
48598
目录名称:
STARLINK-2256
国际标识:
2021-041AX
轨道中心:
EARTH
卫星名称:
星链-2256
卫星全名:
星链-2256 (STARLINK-2256 )
卫星状态:
已陨落 最后检测时间 2024-05-04
发射日期:
2021-05-15 UTC
国别 :
美国 (US)
星等 :
--
该卫星已列入 空间交会检测服务 Space Conjunction Data Service (SCDS) ,当前飞行风险评估等级: 无高风险
轨道信息
数据来源 国际轨道数据
星历时间: 2024-05-05T03:51:57+0800
轨道信息已过期860天
半长轴: 6545.952km
偏心率: 0.0004753
轨道倾角: 53.034°
近地点辐角 315.605°
升交点赤经 202.015°
平近点角 145.535°
近地点: 164.705km
远地点: 170.929km
周期: 87.845分钟
每日圈数: 16.39244
详细信息
固有亮度:
5
最大亮度:
2.5
卫星平台:
Starlink V1.0
覆盖范围:
全球
运营商:
太空探索技术公司
运营商所在国:
美国
制造商(研发单位):
太空探索技术公司
制造商所在国:
美国
使用方式:
暂无
卫星简介
星链(Starlink)计划是由太空探索技术公司(SpaceX)提出的一个巨型低轨卫星互联网星座项目,计划在2019年至2024年间在太空搭建由约1.2万颗卫星组成的“星链”网络,其中1584颗将部署在地球上空550千米处的近地轨道,并从2020年开始工作。该卫星已陨落。
与全量物体交会距离演化趋势
与全量物体交会风险概率演化趋势